Погода в Вощажникове

Россия / Ярославская область     57°21′38″N   39°08′22″E
темп.,
°C
ветер,
м/с
пор.,
м/с
влажн.,
%
обл.,
%
осадки,
мм/ч
давл.,
гПа
погр.,
м
15 июня, вт
вт1500:00+16с228576 0.1 101513
03:00+14ссв118851 0.1 101511
06:00+17в118424 0.0 101577
09:00+21ююв23720 0.0 1014480
12:00+24ююв33633 0.3 10131136
15:00+22ю2474100 1.3 1011276
18:00+23зюз24753 0.6 1010274
21:00+18зсз22829 0.8 101011
16 июня, ср
ср1600:00+17юз228388 0.0 100911
03:00+17з239095 0.4 100952
06:00+16сз4988100 0.1 1010247
09:00+19ссз5673100 0.1 1012703
12:00+20ссз566655 0.2 10131467
15:00+22с57492 0.2 10142140
18:00+20с36584 0.0 1015381
21:00+14зсз3373100 0.0 101739
17 июня, чт
чт1700:00+12сз36664 0.0 101999
03:00+10сз33650 0.0 102143
06:00+12сз310704 0.0 1023284
09:00+17ссз46520 0.0 1024672
12:00+21сз36460 0.0 10241764
15:00+22зсз565015 0.0 10242085
18:00+22зсз35634 0.0 1024489
21:00+17зюз33740 0.0 102420
18 июня, пт
пт1800:00+14з33795 0.0 102539
03:00+13з338548 0.0 102628
06:00+16з228060 0.0 102789
09:00+21зюз22625 0.0 1027481
12:00+24зюз244997 0.0 10261578
15:00+25зюз4550100 0.0 10251771
18:00+24зюз35635 0.0 1025282
21:00+19юз46785 0.0 102583
19 июня, сб
сб1900:00+17зюз48794 0.0 1025118
03:00+15зюз411860 0.0 1026202
06:00+17зюз512810 0.0 1026312
09:00+22з58650 0.0 1026591
12:00+25з67540 0.0 10251523
15:00+27з57550 0.0 10241844
18:00+25зсз36610 0.0 1023251
21:00+20зюз33700 0.0 102330